This demonstration page uses our WeatherBlox Daily Observations layout. Learn more.

Hourly Observations for October 8, 2019

Temp ( °F °C ) Dew Point ( °F °C ) Humidity (%) Winds ( mph kmh ) Pressure ( in mb ) Visibility ( mi km ) Precip ( " mm )
12:54 am 00:54 Clear 48 8.9 39 3.9 71 71 S 9 15 30.09 1019 10 16.09344 0 0
1:54 am 01:54 Clear 46 7.8 39 3.9 77 77 S 8 13 30.06 1018 10 16.09344 0 0
2:54 am 02:54 Clear 47 8.3 40 4.4 77 77 S 7 11 30.06 1018 10 16.09344 0 0
3:54 am 03:54 Clear 47 8.3 39 3.9 74 74 SSE 5 7 30.06 1018 10 16.09344 0 0
4:54 am 04:54 Clear 47 8.3 40 4.4 77 77 S 5 7 30.06 1018 10 16.09344 0 0
5:54 am 05:54 Clear 45 7.2 39 3.9 80 80 S 7 11 30.06 1018 10 16.09344 0 0
6:54 am 06:54 Clear 48 8.9 41 5 77 77 S 13 20 30.06 1018 10 16.09344 0 0
7:54 am 07:54 Sunny 49 9.4 42 5.6 77 77 S 10 17 30.03 1017 10 16.09344 0 0
8:54 am 08:54 Sunny 55 12.8 44 6.7 67 67 S 12 19 30.03 1017 10 16.09344 0 0
9:54 am 09:54 Sunny 61 16.1 44 6.7 54 54 S 22 35 30 1016 10 16.09344 0 0
10:54 am 10:54 Sunny 65 18.3 43 6.1 45 45 S 22 35 30 1016 10 16.09344 0 0
11:54 am 11:54 Sunny 68 20 41 5 38 38 SSW 21 33 29.97 1015 10 16.09344 0 0
12:54 pm 12:54 Sunny 71 21.7 43 6.1 36 36 S 24 39 29.94 1014 10 16.09344 0 0
1:54 pm 13:54 Sunny 73 22.8 44 6.7 35 35 S 22 35 29.91 1013 10 16.09344 0 0
2:54 pm 14:54 Sunny 74 23.3 44 6.7 34 34 S 20 31 29.88 1012 10 16.09344 0 0
3:54 pm 15:54 Sunny 74 23.3 45 7.2 36 36 S 23 37 29.85 1011 10 16.09344 0 0
4:54 pm 16:54 Sunny 73 22.8 45 7.2 37 37 S 24 39 29.85 1011 10 16.09344 0 0
5:54 pm 17:54 Sunny 71 21.7 45 7.2 39 39 S 16 26 29.85 1011 10 16.09344 0 0
6:54 pm 18:54 Sunny 67 19.4 46 7.8 47 47 S 14 22 29.85 1011 10 16.09344 0 0
7:54 pm 19:54 Clear 62 16.7 47 8.3 58 58 SSE 12 19 29.88 1012 10 16.09344 0 0
8:54 pm 20:54 Clear 59 15 47 8.3 64 64 S 10 17 29.88 1012 10 16.09344 0 0
9:54 pm 21:54 Clear 59 15 47 8.3 64 64 S 10 17 29.88 1012 10 16.09344 0 0
10:54 pm 22:54 Clear 58 14.4 48 8.9 70 70 S 13 20 29.88 1012 10 16.09344 0 0
11:54 pm 23:54 Clear 57 13.9 48 8.9 72 72 SSE 8 13 29.85 1011 10 16.09344 0 0

Powered by AerisWeather